Location: Schommer Observatory
(40.5200°N, 74.4500°W)
Time: 11:15:44
(UTC-04:00)

Envisat - Pass Details

Date: 08 October 2017
Orbit: 764 x 766 km, 98.2° (Epoch: 22 July)

Event Time Altitude Azimuth Distance (km) Brightness Sun altitude
Exits shadow 20:42:57 69° 26° (NNE) 822 3.0 -26.3°
Drops below altitude 10° 20:47:33 10° 351° (N) 2,313 5.8 -27.1°
Sets 20:49:52 0° 349° (N) 3,243 6.6 -27.5°
